Weather reports worldwide

Advertisment
Ibiza/Es Codola, Spain (8373): temperature & dewpoint: 16.09.2018 23:00:00 - 22.09.2018 23:00:00 (CEST)Ibiza/Es Codola, Spain (8373): wind speed: 16.09.2018 23:00:00 - 22.09.2018 23:00:00 (CEST)Ibiza/Es Codola, Spain (8373): wind direction: 16.09.2018 23:00:00 - 22.09.2018 23:00:00 (CEST)Ibiza/Es Codola, Spain (8373): reduced air pressure: 16.09.2018 23:00:00 - 22.09.2018 23:00:00 (CEST)Ibiza/Es Codola, Spain (8373): visibility: 16.09.2018 23:00:00 - 22.09.2018 23:00:00 (CEST)
Date & Time tt [°C] td [°C] ff [km/h] ff [kn] dd ppp [hPa] vv [km]
22.09.2018 23:00:00 23,4 18,7 4 2 W 1022,5 20
22.09.2018 22:00:00 23,7 18,6 9 5 SW 1022,6 10
22.09.2018 21:00:00 24,5 18,7 8 4 SSW 1022,0 10
22.09.2018 20:00:00 24,7 18,6 11 6 SW 1021,7 22
22.09.2018 19:00:00 25,7 18,5 11 6 SW 1021,7 10
22.09.2018 18:00:00 26,0 18,4 13 7 SW 1021,7 10
22.09.2018 17:00:00 27,0 18,9 15 8 SW 1021,9 25
22.09.2018 16:00:00 27,1 18,9 15 8 SSW 1022,4 10
22.09.2018 15:00:00 26,9 18,9 15 8 SSW 1022,6 10
22.09.2018 14:00:00 27,1 18,9 13 7 SSW 1023,0 10
22.09.2018 13:00:00 27,3 18,8 13 7 SW 1023,4 10
22.09.2018 12:00:00 26,3 19,3 11 6 SSW 1023,3 10
22.09.2018 11:00:00 26,4 19,5 9 5 S 1023,1 10
22.09.2018 10:00:00 24,7 20,1 5 3 S 1022,7 10
22.09.2018 09:00:00 22,7 20,0 4 2 - 1022,4 10
22.09.2018 08:00:00 20,5 18,3 5 3 NNW 1021,6 10
22.09.2018 07:00:00 20,2 18,0 4 2 - 1021,1 10
22.09.2018 06:00:00 20,0 17,8 2 1 - 1020,7 10
22.09.2018 05:00:00 20,2 17,7 5 3 NNW 1020,6 10
22.09.2018 04:00:00 20,6 18,3 4 2 E 1020,8 10
22.09.2018 03:00:00 20,2 17,5 2 1 - 1020,5 10
22.09.2018 02:00:00 22,0 19,3 2 1 SW 1020,3 10
22.09.2018 01:00:00 21,9 18,3 5 3 WNW 1020,3 10
22.09.2018 00:00:00 22,4 18,8 4 2 - 1020,2 10
21.09.2018 23:00:00 23,6 19,1 9 5 SW 1019,9 10
21.09.2018 22:00:00 23,5 19,2 9 5 SW 1019,7 10
21.09.2018 21:00:00 24,2 19,5 11 6 SW 1018,9 10
21.09.2018 20:00:00 24,6 19,7 13 7 SW 1018,3 20
21.09.2018 19:00:00 25,8 19,7 15 8 SSW 1018,0 10
21.09.2018 18:00:00 26,5 19,1 16 9 SW 1017,6 10
21.09.2018 17:00:00 27,2 19,2 18 10 SW 1017,7 10
21.09.2018 16:00:00 27,2 18,3 18 10 SSW 1017,8 10
21.09.2018 15:00:00 27,5 18,8 15 8 SW 1018,3 10
21.09.2018 14:00:00 27,2 19,0 15 8 SW 1018,5 10
21.09.2018 13:00:00 27,0 19,6 16 9 SW 1018,6 10
21.09.2018 12:00:00 26,6 19,3 15 8 SW 1018,7 10
21.09.2018 11:00:00 25,8 18,5 13 7 SSW 1018,8 10
21.09.2018 10:00:00 25,0 18,8 11 6 SW 1018,3 10
21.09.2018 09:00:00 22,0 18,8 2 1 - 1018,0 10
21.09.2018 08:00:00 19,6 17,6 2 1 - 1017,7 10
21.09.2018 07:00:00 19,2 16,8 4 2 NNW 1017,0 10
21.09.2018 06:00:00 19,1 16,9 0 0 N 1016,9 10
21.09.2018 05:00:00 19,1 16,8 2 1 - 1017,1 10
21.09.2018 04:00:00 19,7 17,1 5 3 NNW 1017,3 10
21.09.2018 03:00:00 20,4 17,6 4 2 - 1017,6 10
21.09.2018 02:00:00 20,2 17,6 0 0 N 1018,0 14
21.09.2018 01:00:00 20,7 17,7 0 0 N 1018,3 10
21.09.2018 00:00:00 21,5 18,1 5 3 NNW 1018,4 10
20.09.2018 23:00:00 21,7 18,3 4 2 - 1018,5 10
20.09.2018 22:00:00 22,2 18,3 5 3 NNW 1018,4 10
20.09.2018 21:00:00 23,5 18,4 5 3 NNW 1018,0 10
20.09.2018 20:00:00 24,5 17,9 4 2 SSE 1018,0 30
20.09.2018 19:00:00 26,1 17,6 5 3 SSE 1018,2 10
20.09.2018 18:00:00 26,4 17,9 8 4 SW 1018,0 10
20.09.2018 17:00:00 27,8 17,7 8 4 SE 1018,6 30
20.09.2018 16:00:00 27,4 17,9 8 4 SSW 1018,7 10
20.09.2018 15:00:00 26,5 17,5 8 4 E 1019,4 10
20.09.2018 14:00:00 27,4 16,8 11 6 ESE 1019,7 10
20.09.2018 13:00:00 27,5 18,4 15 8 E 1020,0 10
20.09.2018 12:00:00 27,1 18,2 13 7 E 1020,2 10
20.09.2018 11:00:00 26,3 18,1 11 6 ENE 1020,5 10
20.09.2018 10:00:00 25,2 18,6 9 5 NE 1020,3 10
20.09.2018 09:00:00 22,9 18,9 4 2 - 1020,1 10
20.09.2018 08:00:00 19,7 17,4 4 2 - 1019,8 10
20.09.2018 07:00:00 20,2 17,8 0 0 N 1019,8 10
20.09.2018 06:00:00 19,9 17,7 0 0 N 1019,8 10
20.09.2018 05:00:00 20,0 17,7 2 1 NNW 1019,8 10
20.09.2018 04:00:00 20,4 17,7 5 3 NW 1020,0 10
20.09.2018 03:00:00 20,9 18,4 0 0 N 1020,5 10
20.09.2018 02:00:00 20,9 18,3 2 1 - 1020,7 10
20.09.2018 01:00:00 21,2 18,2 2 1 - 1021,0 10
20.09.2018 00:00:00 22,2 18,6 5 3 N 1021,1 10
19.09.2018 23:00:00 22,2 18,7 5 3 NNW 1021,0 10
19.09.2018 22:00:00 23,2 19,0 9 5 NNW 1020,8 10
19.09.2018 21:00:00 24,1 19,7 5 3 N 1020,0 10
19.09.2018 20:00:00 24,9 19,5 8 4 ENE 1019,6 10
19.09.2018 19:00:00 26,0 18,9 5 3 E 1019,5 10
19.09.2018 18:00:00 26,4 17,9 9 5 ENE 1019,4 10
19.09.2018 17:00:00 25,1 19,5 4 2 - 1019,8 10
19.09.2018 16:00:00 25,2 20,4 11 6 E 1020,1 10
19.09.2018 15:00:00 25,7 20,2 4 2 - 1020,1 10
19.09.2018 14:00:00 23,4 19,7 11 6 W 1020,5 10
19.09.2018 13:00:00 23,7 19,9 16 9 ENE 1020,4 10
19.09.2018 12:00:00 27,3 19,6 13 7 E 1020,2 10
19.09.2018 11:00:00 26,9 18,9 9 5 E 1019,9 10
19.09.2018 10:00:00 26,1 18,3 8 4 NE 1019,5 10
19.09.2018 09:00:00 23,7 19,2 5 3 N 1018,8 10
19.09.2018 08:00:00 21,4 18,5 4 2 - 1018,4 10
19.09.2018 07:00:00 21,7 18,9 4 2 - 1017,8 10
19.09.2018 06:00:00 21,5 19,1 0 0 N 1017,4 10
19.09.2018 05:00:00 21,7 19,0 2 1 - 1017,5 10
19.09.2018 04:00:00 21,7 18,9 4 2 - 1017,6 10
19.09.2018 03:00:00 22,0 19,0 2 1 - 1017,8 10
19.09.2018 02:00:00 22,6 19,0 5 3 NNW 1018,1 10
19.09.2018 01:00:00 23,0 19,2 0 0 N 1018,3 10
19.09.2018 00:00:00 23,5 19,0 5 3 NW 1018,5 10
18.09.2018 23:00:00 24,2 18,6 4 2 SE 1017,8 10
18.09.2018 22:00:00 24,5 18,9 4 2 - 1017,4 10
18.09.2018 21:00:00 25,2 18,8 8 4 ESE 1016,8 10
18.09.2018 20:00:00 25,6 19,4 9 5 E 1016,0 10
18.09.2018 19:00:00 26,4 19,2 15 8 E 1015,9 10
18.09.2018 18:00:00 27,0 19,7 16 9 E 1015,5 10
18.09.2018 17:00:00 27,3 18,9 16 9 E 1016,0 10
18.09.2018 16:00:00 27,8 18,1 13 7 ESE 1015,9 10
18.09.2018 15:00:00 27,6 17,7 13 7 E 1016,1 10
18.09.2018 14:00:00 27,8 18,4 11 6 E 1016,3 10
18.09.2018 13:00:00 27,0 19,0 5 3 SSE 1016,4 10
18.09.2018 12:00:00 26,5 18,9 4 2 - 1016,6 10
18.09.2018 11:00:00 26,8 18,7 9 5 SSW 1016,7 10
18.09.2018 10:00:00 26,2 18,3 4 2 - 1016,5 10
18.09.2018 09:00:00 24,2 18,7 5 3 NNW 1016,0 10
18.09.2018 08:00:00 22,1 18,7 4 2 N 1015,4 15
18.09.2018 07:00:00 22,5 19,1 5 3 NW 1015,1 10
18.09.2018 06:00:00 23,0 20,1 2 1 - 1015,0 10
18.09.2018 05:00:00 24,2 20,3 2 1 - 1014,9 10
18.09.2018 04:00:00 25,2 21,5 11 6 ESE 1015,6 10
18.09.2018 03:00:00 24,9 21,4 8 4 ENE 1016,1 10
18.09.2018 02:00:00 24,2 21,2 4 2 ENE 1016,3 12
18.09.2018 01:00:00 24,5 20,8 4 2 - 1016,5 10
18.09.2018 00:00:00 24,6 19,9 5 3 SE 1016,7 10
17.09.2018 23:00:00 24,9 19,1 5 3 ESE 1016,8 10
17.09.2018 22:00:00 25,7 20,9 9 5 E 1016,8 10
17.09.2018 21:00:00 25,5 21,0 11 6 E 1016,3 10
17.09.2018 20:00:00 25,7 20,9 13 7 E 1016,0 10
17.09.2018 19:00:00 26,4 20,7 13 7 E 1016,4 10
17.09.2018 18:00:00 26,6 20,5 15 8 E 1016,5 10
17.09.2018 17:00:00 26,9 21,2 15 8 E 1016,5 10
17.09.2018 16:00:00 27,2 21,2 15 8 ENE 1017,3 10
17.09.2018 15:00:00 27,3 20,9 15 8 ENE 1017,9 10
17.09.2018 14:00:00 26,7 21,5 13 7 NNE 1018,3 25
17.09.2018 13:00:00 25,5 21,1 13 7 E 1018,6 4,5
17.09.2018 12:00:00 27,4 20,2 21 11 ENE 1019,1 10
17.09.2018 11:00:00 26,8 20,4 18 10 ENE 1019,0 10
17.09.2018 10:00:00 25,9 20,5 15 8 NE 1019,1 10
17.09.2018 09:00:00 24,1 20,2 8 4 N 1019,0 10
17.09.2018 08:00:00 22,6 19,3 5 3 N 1018,8 18
17.09.2018 07:00:00 22,2 19,2 4 2 - 1018,5 10
17.09.2018 06:00:00 21,2 18,3 0 0 N 1018,5 10
17.09.2018 05:00:00 22,0 18,6 5 3 NNW 1018,6 10
17.09.2018 04:00:00 23,0 19,0 8 4 N 1018,5 10
17.09.2018 03:00:00 22,7 19,0 11 6 NNW 1018,7 10
17.09.2018 02:00:00 22,4 18,9 8 4 N 1019,5 18
17.09.2018 01:00:00 22,6 18,8 9 5 NNW 1020,0 10
17.09.2018 00:00:00 23,2 18,9 5 3 N 1020,2 10
16.09.2018 23:00:00 23,7 19,0 8 4 N 1020,6 10

tt = temperature
td = dewpoint
ff = wind speed
dd = wind direction
ppp = reduced air pressure
vv = visibility

Next stations